Flag for U.S.A. Weather past 2 weeks in Boise, Idaho, U.S.A.

Now
54 °F

Fog.


Feels Like: 52 °F
Forecast: 48 / 61 °F
Wind: 6 mph from Northwest

Location: Boise Air Terminal

Current Time: Sep 30, 2014 at 9:35:23 AM

Latest Report: Sep 30, 2014 at 8:57 AM


Visibility: 4 mi

Pressure: 29.96 "Hg

Humidity: 94%

Dew point: 52 °F

Location of BoiseLocation

Historic Weather in Boise — Graph

°F

Boise temperature yesterday

Maximum temperature yesterday: 62 °F (at 12:53 PM)
Minimum temperature yesterday: 52 °F (at 3:53 AM)
Average temperature yesterday: 56 °F

Past Weeks' High & Low Weather Summary

 TemperatureHumidityPressure
High95 °F (Sep 24, 5:53 PM)96% (Sep 29, 1:53 AM)30.08 "Hg (Sep 29, 1:53 AM)
Low52 °F (Sep 29, 3:53 AM)11% (Sep 24, 5:53 PM)29.59 "Hg (Sep 18, 12:53 AM)
Average69 °F48%29.86 "Hg
* Reported Sep 15 7:53 AM — Sep 30 7:53 AM, Boise, Weather by CustomWeather, © 2014

Note: Actual official high and low records may vary slightly from our data, if they occured in-between our weather recording intervals... More about our weather records

Advertising

Boise weather history for previous 24 hours

 ConditionsComfort  
Time TempWeatherWind HumidityBarometerVisibility
7:53 AM
Sep 30
53 °FFog.6 mph93%29.91 "Hg5 mi
6:53 AM53 °FLight rain. Fog.No wind93%29.90 "Hg5 mi
5:53 AM53 °FLow clouds.3 mph93%29.89 "Hg7 mi
4:53 AM52 °FOvercast.5 mph93%29.90 "Hg10 mi
3:53 AM52 °FPartly cloudy.No wind93%29.89 "Hg8 mi
2:53 AM53 °FMostly cloudy.No wind93%29.89 "Hg10 mi
1:53 AM53 °FPassing clouds.5 mph89%29.89 "Hg10 mi
12:53 AM53 °FClear.No wind93%29.90 "Hg10 mi
11:53 PM
Sep 29
55 °FClear.No wind87%29.90 "Hg10 mi
10:53 PM54 °FClear.3 mph93%29.91 "Hg9 mi
9:53 PM54 °FClear.3 mph93%29.92 "Hg8 mi
8:53 PM56 °FSunny.No wind84%29.90 "Hg10 mi
7:53 PM56 °FPartly sunny.No wind87%29.92 "Hg10 mi
6:53 PM56 °FLight rain. More clouds than sun.No wind87%29.92 "Hg10 mi
5:53 PM57 °FLight rain. More clouds than sun.10 mph87%29.93 "Hg10 mi
4:53 PM59 °FMore clouds than sun.13 mph75%29.92 "Hg10 mi
3:53 PM61 °FMore clouds than sun.9 mph65%29.91 "Hg10 mi
2:53 PM61 °FMore clouds than sun.8 mph62%29.90 "Hg10 mi
1:53 PM62 °FMostly cloudy.7 mph58%29.91 "Hg10 mi
12:53 PM62 °FMore clouds than sun.3 mph58%29.91 "Hg10 mi
11:53 AM60 °FBroken clouds.9 mph65%29.91 "Hg10 mi
10:53 AM58 °FOvercast.10 mph67%29.90 "Hg10 mi
9:53 AM56 °FMostly cloudy.7 mph75%29.89 "Hg10 mi
Weather by CustomWeather, © 2014

See weather overviewHow to use our weather pages